Weather History for Arlington, WA

Change the Weather History Date:

Monday, February 6, 2012

  Actual Average Record
Temperature  
Mean Temperature 40 °F -  
Max Temperature 57 °F 57 °F 60 °F (1998)
Min Temperature 23 °F 29 °F 10 °F (2014)
Degree Days  
Heating Degree Days 25    
Moisture  
Dew Point 5 °F    
Average Humidity 27    
Maximum Humidity 65    
Minimum Humidity 13    
Precipitation  
Precipitation 0.00 in - - ()
Sea Level Pressure  
Sea Level Pressure 30.06 in    
Wind  
Wind Speed 1 mph (NNW)    
Max Wind Speed 6 mph    
Max Gust Speed -    
Visibility 7 miles    
Events      
Averages and records for this station are not official NWS values.
T = Trace of Precipitation, MM = Missing Value Source: NWS Daily Summary

Daily Weather History Graph

Daily Weather History Graph

Search for Another Location

Airport:

Trip Planner

Search our weather history database for the weather conditions in past years. The results will help you decide how hot, cold, wet, or windy it might be!

Date:

Astronomy

Feb. 06, 2012 Rise Set
Actual Time 7:30 AM PST 5:15 PM PST
Civil Twilight 6:57 AM PST 5:48 PM PST
Nautical Twilight 6:20 AM PST 6:25 PM PST
Astronomical Twilight 5:44 AM PST 7:02 PM PST
Moon 4:25 PM PST (2/6) 6:27 AM PST (2/6)
Length of Visible Light 10h 51m
Length of Day
9h 45m
Waxing Gibbous, 99% of the Moon is Illuminated
Feb 6
Waxing Gibbous
Feb 7
Full
Feb 14
Last Quarter
Feb 21
New
Feb 29
First Quarter

Hourly Weather History & Observations

Time (PST) Temp. Windchill Dew Point Humidity Pressure Visibility Wind Dir Wind Speed Gust Speed Precip Events Conditions
12:15 AM 28.4 °F - -7.6 °F 21% 30.16 in 10.0 mi Calm Calm - N/A   Clear
12:35 AM 30.2 °F - 15.8 °F 55% 30.16 in 5.0 mi Calm Calm - N/A   Clear
12:55 AM 30.2 °F - -2.2 °F 25% 30.15 in 6.0 mi Calm Calm - N/A   Clear
1:15 AM 28.4 °F - 3.2 °F 34% 30.15 in 5.0 mi Calm Calm - N/A   Clear
1:35 AM 28.4 °F 24.6 °F 3.2 °F 34% 30.15 in 1.8 mi North 3.5 mph - N/A   Clear
1:55 AM 26.6 °F - 1.4 °F 34% 30.15 in 5.0 mi Calm Calm - N/A   Clear
2:15 AM 28.4 °F - 3.2 °F 34% 30.14 in 0.2 mi Calm Calm - N/A   Mostly Cloudy
2:35 AM 28.4 °F - 6.8 °F 40% 30.14 in 3.0 mi Calm Calm - N/A   Partly Cloudy
2:55 AM 28.4 °F - 5.0 °F 37% 30.14 in 3.0 mi Calm Calm - N/A   Clear
3:15 AM 26.6 °F - 3.2 °F 37% 30.14 in 3.0 mi Calm Calm - N/A   Clear
3:35 AM 26.6 °F 20.0 °F 1.4 °F 34% 30.13 in 7.0 mi North 5.8 mph - N/A   Clear
3:55 AM 26.6 °F - 3.2 °F 37% 30.13 in 1.8 mi Calm Calm - N/A   Scattered Clouds
4:15 AM 23.0 °F - -0.4 °F 36% 30.13 in 0.2 mi Calm Calm - N/A   Overcast
4:35 AM 24.8 °F 20.5 °F -0.4 °F 34% 30.12 in 0.2 mi North 3.5 mph - N/A   Overcast
4:55 AM 26.6 °F - 1.4 °F 34% 30.11 in 0.2 mi Calm Calm - N/A   Overcast
5:15 AM 26.6 °F - 1.4 °F 34% 30.11 in 0.5 mi Calm Calm - N/A   Overcast
5:35 AM 26.6 °F - 1.4 °F 34% 30.11 in 0.2 mi Calm Calm - N/A   Overcast
5:55 AM 24.8 °F - -2.2 °F 31% 30.10 in 0.8 mi Calm Calm - N/A   Overcast
6:15 AM 26.6 °F - 3.2 °F 37% 30.09 in 2.5 mi Calm Calm - N/A   Scattered Clouds
6:35 AM 24.8 °F - -0.4 °F 34% 30.09 in 0.2 mi Calm Calm - N/A   Mostly Cloudy
6:55 AM 24.8 °F - -0.4 °F 34% 30.09 in 0.5 mi Calm Calm - N/A   Mostly Cloudy
7:15 AM 24.8 °F - -0.4 °F 34% 30.09 in 0.2 mi Calm Calm - N/A   Overcast
7:35 AM 24.8 °F - -0.4 °F 34% 30.09 in 1.0 mi Calm Calm - N/A   Mostly Cloudy
7:55 AM 24.8 °F - 1.4 °F 36% 30.09 in 0.2 mi Calm Calm - N/A   Unknown
8:15 AM 26.6 °F - 1.4 °F 34% 30.10 in 3.0 mi Calm Calm - N/A   Clear
8:35 AM 26.6 °F - 1.4 °F 34% 30.10 in 10.0 mi Calm Calm - N/A   Clear
8:55 AM 30.2 °F - 5.0 °F 34% 30.09 in 10.0 mi Calm Calm - N/A   Clear
9:15 AM 30.2 °F - 3.2 °F 32% 30.09 in 10.0 mi Calm Calm - N/A   Clear
9:35 AM 33.8 °F - 6.8 °F 32% 30.09 in 10.0 mi Calm Calm - N/A   Clear
9:55 AM 35.6 °F - 8.6 °F 33% 30.08 in 10.0 mi Calm Calm - N/A   Clear
10:15 AM 37.4 °F - 26.6 °F 65% 30.08 in 10.0 mi Calm Calm - N/A   Clear
10:35 AM 39.2 °F - 26.6 °F 61% 30.07 in 10.0 mi Calm Calm - N/A   Clear
10:55 AM 44.6 °F - 15.8 °F 31% 30.07 in 10.0 mi Calm Calm - N/A   Clear
11:15 AM 44.6 °F - 3.2 °F 18% 30.06 in 10.0 mi Calm Calm - N/A   Clear
11:35 AM 46.4 °F - 3.2 °F 17% 30.06 in 10.0 mi Calm Calm - N/A   Clear
11:55 AM 48.2 °F - 5.0 °F 17% 30.05 in 10.0 mi NNW 3.5 mph - N/A   Clear
12:15 PM 50.0 °F - 3.2 °F 15% 30.05 in 10.0 mi Calm Calm - N/A   Clear
12:35 PM 53.6 °F - 8.6 °F 16% 30.04 in 10.0 mi Calm Calm - N/A   Clear
12:55 PM 53.6 °F - 6.8 °F 15% 30.03 in 10.0 mi Calm Calm - N/A   Clear
1:15 PM 55.4 °F - 6.8 °F 14% 30.02 in 10.0 mi NNW 4.6 mph - N/A   Clear
1:35 PM 55.4 °F - 5.0 °F 13% 30.00 in 10.0 mi NW 4.6 mph - N/A   Clear
1:55 PM 57.2 °F - 6.8 °F 13% 30.00 in 10.0 mi NNW 3.5 mph - N/A   Clear
2:15 PM 57.2 °F - 6.8 °F 13% 29.99 in 10.0 mi NNW 5.8 mph - N/A   Clear
2:35 PM 57.2 °F - 6.8 °F 13% 29.99 in 10.0 mi NW 5.8 mph - N/A   Clear
2:55 PM 57.2 °F - 6.8 °F 13% 29.98 in 10.0 mi NW 3.5 mph - N/A   Clear
3:15 PM 57.2 °F - 6.8 °F 13% 29.98 in 10.0 mi NNW 4.6 mph - N/A   Clear
3:35 PM 55.4 °F - 8.6 °F 15% 29.97 in 10.0 mi NNW 4.6 mph - N/A   Clear
3:55 PM 55.4 °F - 8.6 °F 15% 29.97 in 10.0 mi NW 3.5 mph - N/A   Clear
4:15 PM 53.6 °F - 6.8 °F 15% 29.97 in 10.0 mi NNW 4.6 mph - N/A   Clear
4:35 PM 51.8 °F - 5.0 °F 15% 29.97 in 10.0 mi Calm Calm - N/A   Clear
4:55 PM 48.2 °F - 3.2 °F 16% 29.97 in 10.0 mi NW 4.6 mph - N/A   Clear
5:15 PM 44.6 °F 43.1 °F 3.2 °F 18% 29.97 in 10.0 mi NNW 3.5 mph - N/A   Clear
5:35 PM 46.4 °F - 5.0 °F 18% 29.97 in 10.0 mi Calm Calm - N/A   Clear
5:55 PM 42.8 °F - 1.4 °F 18% 29.97 in 10.0 mi Calm Calm - N/A   Clear
6:15 PM 39.2 °F - -0.4 °F 19% 29.97 in 10.0 mi Calm Calm - N/A   Clear
6:35 PM 39.2 °F - -0.4 °F 19% 29.97 in 10.0 mi Calm Calm - N/A   Clear
6:55 PM 37.4 °F - -0.4 °F 20% 29.97 in 10.0 mi Calm Calm - N/A   Clear
7:15 PM 37.4 °F - 1.4 °F 22% 29.97 in 10.0 mi Calm Calm - N/A   Clear
7:35 PM 35.6 °F - -0.4 °F 22% 29.97 in 10.0 mi Calm Calm - N/A   Clear
7:55 PM 35.6 °F - -4.0 °F 18% 29.96 in 10.0 mi Calm Calm - N/A   Clear
8:15 PM 33.8 °F - -2.2 °F 22% 29.96 in 10.0 mi Calm Calm - N/A   Clear
8:35 PM 32.0 °F - -7.6 °F 18% 29.96 in 10.0 mi Calm Calm - N/A   Clear
8:55 PM 33.8 °F - -0.4 °F 23% 29.96 in 10.0 mi Calm Calm - N/A   Clear
9:15 PM 33.8 °F - -2.2 °F 22% 29.97 in 10.0 mi Calm Calm - N/A   Clear
9:35 PM 32.0 °F - -5.8 °F 20% 29.97 in 10.0 mi Calm Calm - N/A   Clear
10:15 PM 30.2 °F - -9.4 °F 18% 29.96 in 10.0 mi Calm Calm - N/A   Clear
10:35 PM 33.8 °F - -5.8 °F 18% 29.96 in 10.0 mi Calm Calm - N/A   Clear
10:55 PM 28.4 °F - -9.4 °F 19% 29.96 in 10.0 mi Calm Calm - N/A   Clear
11:15 PM 32.0 °F 28.7 °F -5.8 °F 20% 29.95 in 10.0 mi North 3.5 mph - N/A   Clear
11:35 PM 28.4 °F - -9.4 °F 19% 29.95 in 10.0 mi Calm Calm - N/A   Clear
11:55 PM 28.4 °F - -9.4 °F 19% 29.95 in 10.0 mi Calm Calm - N/A   Clear